カタログに戻る

CZ-6A DEB

運用中PO
NORAD 60816·DEBRIS·🇨🇳 China

打ち上げ Aug 6, 2024 から Taiyuan Satellite Launch Center

Loading…

次のパス (今後24時間)

TLE

最新Source: Space-Track

元期: Sep 14, 2026, 11:21 UTC

1 60816U 24140GT  26257.47355789  .00001447  00000-0  53766-3 0  9998
2 60816  89.0404 267.2237 0011002 263.4528  96.5416 14.31659707108992

AllMySatでCZ-6A DEBをリアルタイム追跡

Download on the App Store